• In Kazakhstan
  • List of Countries
  • For 7 days
  • Water Temperature
  • Weather Map
  • News
  • Weather Widgets
  • user-avatar
    Login

    Hourly Weather Poole

    Today, 20 August, Tuesday

    Time Temperature Precipitation Wind Pressure Humidity
    00:00 +12°C° 0 mm 4 mps 764 mmHg 90%
    01:00 +11°C° 0 mm 4 mps 764 mmHg 90%
    02:00 +11°C° 0 mm 4 mps 764 mmHg 91%
    03:00 +11°C° 0 mm 4 mps 764 mmHg 91%
    04:00 +11°C° 0 mm 4 mps 764 mmHg 91%
    05:00 +11°C° 0 mm 4 mps 765 mmHg 91%
    06:00 +11°C° 0 mm 3 mps 765 mmHg 91%
    07:00 +13°C° 0 mm 3 mps 765 mmHg 84%
    08:00 +14°C° 0 mm 4 mps 766 mmHg 77%
    09:00 +17°C° 0 mm 4 mps 766 mmHg 70%
    10:00 +17°C° 0 mm 4 mps 767 mmHg 67%
    11:00 +17°C° 0 mm 5 mps 767 mmHg 63%
    12:00 +17°C° 0 mm 5 mps 767 mmHg 60%
    13:00 +19°C° 0 mm 5 mps 767 mmHg 58%
    14:00 +19°C° 0 mm 5 mps 768 mmHg 57%
    15:00 +19°C° 0 mm 5 mps 768 mmHg 56%
    16:00 +19°C° 0 mm 4 mps 768 mmHg 60%
    17:00 +18°C° 0 mm 4 mps 768 mmHg 64%
    18:00 +17°C° 0 mm 4 mps 768 mmHg 68%
    19:00 +16°C° 0 mm 3 mps 769 mmHg 73%
    20:00 +15°C° 0 mm 2 mps 769 mmHg 79%
    21:00 +13°C° 0 mm 2 mps 769 mmHg 84%
    22:00 +13°C° 0 mm 1 mps 769 mmHg 85%
    23:00 +13°C° 0 mm 1 mps 769 mmHg 86%

    Tomorrow, 21 August, Wednesday

    Time Temperature Precipitation Wind Pressure Humidity
    00:00 +12°C° 0 mm 1 mps 769 mmHg 87%
    01:00 +11°C° 0 mm 0 mps 769 mmHg 87%
    02:00 +12°C° 0 mm 0 mps 769 mmHg 87%
    03:00 +12°C° 0 mm 0 mps 769 mmHg 87%
    04:00 +12°C° 0 mm 0 mps 769 mmHg 87%
    05:00 +13°C° 0 mm 1 mps 769 mmHg 86%
    06:00 +13°C° 0 mm 1 mps 769 mmHg 86%
    07:00 +15°C° 0 mm 1 mps 769 mmHg 81%
    08:00 +17°C° 0 mm 2 mps 769 mmHg 76%
    09:00 +18°C° 0 mm 3 mps 769 mmHg 70%
    10:00 +19°C° 0 mm 3 mps 769 mmHg 69%
    11:00 +19°C° 0 mm 4 mps 768 mmHg 67%
    12:00 +19°C° 0 mm 4 mps 768 mmHg 66%
    13:00 +19°C° 0 mm 4 mps 768 mmHg 66%
    14:00 +19°C° 0 mm 4 mps 768 mmHg 67%
    15:00 +19°C° 0 mm 4 mps 768 mmHg 67%
    16:00 +18°C° 0 mm 4 mps 768 mmHg 69%
    17:00 +18°C° 0 mm 4 mps 768 mmHg 71%
    18:00 +17°C° 0 mm 4 mps 767 mmHg 74%
    19:00 +16°C° 0 mm 3 mps 768 mmHg 78%
    20:00 +14°C° 0 mm 3 mps 768 mmHg 82%
    21:00 +13°C° 0 mm 3 mps 768 mmHg 86%
    22:00 +13°C° 0 mm 3 mps 768 mmHg 87%
    23:00 +13°C° 0 mm 3 mps 768 mmHg 89%

    Day after tomorrow, 22 August, Thursday

    Time Temperature Precipitation Wind Pressure Humidity
    00:00 +12°C° 0 mm 4 mps 768 mmHg 90%
    01:00 +12°C° 0 mm 4 mps 767 mmHg 91%
    02:00 +12°C° 0 mm 4 mps 767 mmHg 92%
    03:00 +12°C° 0 mm 4 mps 767 mmHg 92%
    04:00 +13°C° 0 mm 4 mps 767 mmHg 93%
    05:00 +13°C° 0 mm 4 mps 767 mmHg 93%
    06:00 +13°C° 0 mm 4 mps 767 mmHg 93%
    07:00 +15°C° 0 mm 4 mps 767 mmHg 87%
    08:00 +16°C° 0 mm 5 mps 768 mmHg 82%
    09:00 +19°C° 0 mm 5 mps 768 mmHg 77%
    10:00 +19°C° 0 mm 5 mps 768 mmHg 75%
    11:00 +20°C° 0 mm 5 mps 768 mmHg 74%
    12:00 +21°C° 0 mm 5 mps 768 mmHg 72%
    13:00 +21°C° 0 mm 6 mps 768 mmHg 72%
    14:00 +21°C° 0 mm 6 mps 768 mmHg 72%
    15:00 +21°C° 0 mm 6 mps 768 mmHg 73%
    16:00 +20°C° 0 mm 5 mps 768 mmHg 76%
    17:00 +20°C° 0 mm 5 mps 768 mmHg 79%
    18:00 +19°C° 0 mm 4 mps 768 mmHg 83%
    19:00 +18°C° 0 mm 4 mps 768 mmHg 86%
    20:00 +17°C° 0 mm 3 mps 768 mmHg 90%
    21:00 +16°C° 0 mm 3 mps 768 mmHg 94%
    22:00 +16°C° 0 mm 2 mps 768 mmHg 93%
    23:00 +15°C° 0 mm 1 mps 768 mmHg 92%

    23 August, Friday

    Time Temperature Precipitation Wind Pressure Humidity
    00:00 +15°C° 0 mm 1 mps 768 mmHg 92%
    01:00 +15°C° 0 mm 1 mps 768 mmHg 91%
    02:00 +14°C° 0 mm 0 mps 768 mmHg 91%
    03:00 +14°C° 0 mm 0 mps 767 mmHg 91%
    04:00 +14°C° 0 mm 0 mps 767 mmHg 91%
    05:00 +15°C° 0 mm 1 mps 767 mmHg 91%
    06:00 +15°C° 0 mm 1 mps 767 mmHg 91%
    07:00 +18°C° 0 mm 1 mps 768 mmHg 86%
    08:00 +19°C° 0 mm 1 mps 768 mmHg 81%
    09:00 +21°C° 0 mm 1 mps 768 mmHg 76%
    10:00 +21°C° 0 mm 1 mps 768 mmHg 73%
    11:00 +21°C° 0 mm 2 mps 767 mmHg 71%
    12:00 +23°C° 0 mm 2 mps 767 mmHg 68%
    13:00 +23°C° 0 mm 2 mps 767 mmHg 67%
    14:00 +23°C° 0 mm 2 mps 767 mmHg 67%
    15:00 +23°C° 0 mm 2 mps 766 mmHg 66%
    16:00 +21°C° 0 mm 2 mps 766 mmHg 69%
    17:00 +21°C° 0 mm 2 mps 766 mmHg 72%
    18:00 +21°C° 0 mm 1 mps 766 mmHg 75%
    19:00 +20°C° 0 mm 1 mps 766 mmHg 79%
    20:00 +18°C° 0 mm 1 mps 766 mmHg 83%
    21:00 +16°C° 0 mm 1 mps 765 mmHg 87%
    22:00 +16°C° 0 mm 1 mps 765 mmHg 87%
    23:00 +16°C° 0 mm 1 mps 765 mmHg 88%

    24 August, Saturday

    Time Temperature Precipitation Wind Pressure Humidity
    00:00 +16°C° 0 mm 1 mps 765 mmHg 88%
    01:00 +15°C° 0 mm 2 mps 764 mmHg 88%
    02:00 +15°C° 0 mm 2 mps 764 mmHg 89%
    03:00 +15°C° 0 mm 2 mps 763 mmHg 90%
    04:00 +15°C° 0 mm 2 mps 763 mmHg 89%
    05:00 +15°C° 0 mm 2 mps 763 mmHg 88%
    06:00 +15°C° 0 mm 2 mps 763 mmHg 88%
    07:00 +17°C° 0 mm 2 mps 763 mmHg 80%
    08:00 +19°C° 0 mm 2 mps 763 mmHg 72%
    09:00 +21°C° 0 mm 2 mps 763 mmHg 64%
    10:00 +23°C° 0 mm 2 mps 763 mmHg 60%
    11:00 +24°C° 0 mm 2 mps 763 mmHg 55%
    12:00 +25°C° 0 mm 2 mps 763 mmHg 50%
    13:00 +26°C° 0 mm 2 mps 762 mmHg 49%
    14:00 +26°C° 0 mm 2 mps 762 mmHg 49%
    15:00 +26°C° 0 mm 2 mps 762 mmHg 48%
    16:00 +25°C° 0 mm 2 mps 762 mmHg 54%
    17:00 +24°C° 0 mm 1 mps 762 mmHg 60%
    18:00 +23°C° 0 mm 1 mps 761 mmHg 66%
    19:00 +22°C° 0 mm 1 mps 762 mmHg 68%
    20:00 +21°C° 0 mm 1 mps 762 mmHg 71%
    21:00 +19°C° 0 mm 1 mps 762 mmHg 74%
    22:00 +18°C° 0 mm 2 mps 762 mmHg 74%
    23:00 +18°C° 0 mm 2 mps 762 mmHg 74%

    25 August, Sunday

    Time Temperature Precipitation Wind Pressure Humidity
    00:00 +18°C° 0 mm 3 mps 762 mmHg 74%
    01:00 +18°C° 0 mm 3 mps 761 mmHg 72%
    02:00 +18°C° 0 mm 3 mps 761 mmHg 71%
    03:00 +18°C° 0 mm 3 mps 761 mmHg 69%
    04:00 +18°C° 0.1 mm 3 mps 761 mmHg 72%
    05:00 +18°C° 0.1 mm 2 mps 761 mmHg 75%
    06:00 +18°C° 0.1 mm 2 mps 761 mmHg 79%
    07:00 +19°C° 0.4 mm 2 mps 761 mmHg 77%
    08:00 +20°C° 0.4 mm 3 mps 761 mmHg 75%
    09:00 +21°C° 0.4 mm 3 mps 761 mmHg 73%
    10:00 +22°C° 0.3 mm 3 mps 761 mmHg 69%
    11:00 +24°C° 0.3 mm 3 mps 761 mmHg 65%
    12:00 +25°C° 0.3 mm 2 mps 761 mmHg 61%
    13:00 +25°C° 0.1 mm 3 mps 761 mmHg 61%
    14:00 +25°C° 0.1 mm 3 mps 761 mmHg 61%
    15:00 +25°C° 0.1 mm 3 mps 761 mmHg 61%
    16:00 +24°C° 0.1 mm 2 mps 761 mmHg 64%
    17:00 +24°C° 0.1 mm 2 mps 761 mmHg 67%
    18:00 +23°C° 0.1 mm 1 mps 761 mmHg 71%
    19:00 +22°C° 0 mm 1 mps 761 mmHg 75%
    20:00 +21°C° 0 mm 1 mps 761 mmHg 80%
    21:00 +19°C° 0 mm 2 mps 761 mmHg 84%
    22:00 +18°C° 0 mm 2 mps 762 mmHg 85%
    23:00 +18°C° 0 mm 2 mps 762 mmHg 85%
    Show more